Location: DARK SKY Beskydy - Park tmavé oblohy, www.darkskybeskydy.cz
(49.4926°N, 18.5016°E)
Time: 01:50:26
(UTC+02:00)

TIGRISAT - Pass Details

Date: 13 August 2024
Orbit: 591 x 668 km, 97.7° (Epoch: 14 September)

Event Time Altitude Azimuth Distance (km) Brightness Sun altitude
Rises 04:30:18 0° 170° (S) 2,914 ? -9.8°
Reaches altitude 10° 04:32:30 10° 172° (S) 1,999 ? -9.6°
Maximum altitude 04:36:51 73° 258° (WSW) 649 ? -9.0°
Drops below altitude 10° 04:41:08 10° 343° (NNW) 1,969 ? -8.4°
Sets 04:43:18 0° 345° (NNW) 2,868 ? -8.1°
